Wind_Speed
52 51 52 53 53 52 50 50 52 49 48 45 44 43 41 41 40 40 38 36 35 31 32 30 29 30 29 27 28 26 23 28 28 29 28 29 26 12 9 5 9 10 9 5 5 8 6
55 55 53 53 52 52 52 51 52 52 51 48 46 45 44 43 42 41 40 38 34 33 32 29 32 30 30 29 28 24 22 28 29 28 23 26 24 8 9 6 12 14 10 3 2 4 8
52 54 55 54 52 52 50 50 53 51 53 53 51 50 47 46 45 43 42 40 37 34 33 31 29 30 31 30 28 23 20 26 27 25 21 22 23 9 8 7 14 14 9 9 5 4 9
51 52 52 53 53 53 54 53 52 52 53 55 55 54 52 50 46 46 44 41 38 36 34 32 32 29 33 32 29 24 21 25 21 20 19 17 20 12 7 7 12 15 10 5 5 1 4
55 54 54 53 54 54 55 54 53 54 55 56 54 55 54 53 49 48 46 44 39 36 33 34 32 30 30 31 28 24 22 24 19 19 15 15 14 13 7 5 12 16 6 11 10 6 3
63 62 61 60 59 58 58 58 57 55 55 53 54 56 56 56 54 50 50 46 42 40 33 32 30 29 26 27 28 26 23 24 17 17 13 12 10 13 8 5 9 14 11 8 1 5 3
70 70 70 68 67 66 65 64 63 61 59 58 56 55 52 54 55 53 51 49 46 43 37 33 31 31 23 28 29 26 25 24 18 16 13 10 10 13 11 7 15 21 17 12 13 7 3
76 77 76 76 75 75 74 71 69 67 63 63 61 60 56 55 54 54 52 50 47 47 41 36 33 29 28 29 31 28 26 23 20 15 12 9 9 9 7 6 13 18 20 16 15 13 10
84 85 85 83 83 82 82 81 77 74 68 66 65 65 60 59 57 56 55 51 47 46 47 36 35 30 29 32 29 28 28 24 22 16 13 9 8 5 3 4 11 14 15 18 18 12 12
91 92 92 91 91 90 89 87 84 81 77 70 68 67 64 61 60 58 57 54 50 44 49 41 36 35 33 31 30 28 30 28 23 18 15 11 8 9 7 5 9 10 10 10 14 12 5
85 85 87 89 88 87 85 89 89 88 85 77 72 69 68 65 63 59 58 55 52 46 43 43 38 37 33 32 26 28 30 35 26 21 15 12 11 12 13 13 10 13 12 13 12 12 10
48 49 48 50 53 51 53 59 67 70 74 71 70 68 70 70 66 61 58 56 52 47 45 40 40 34 32 32 30 31 34 33 28 26 18 19 13 14 17 16 14 12 15 13 14 15 13
47 48 48 47 49 51 52 50 49 48 51 58 63 67 69 70 68 63 62 58 54 52 45 40 38 35 32 32 30 33 37 36 30 24 18 17 16 15 19 17 17 17 16 12 12 17 14
47 46 48 48 46 46 49 49 50 52 51 48 64 74 74 71 71 68 65 61 62 51 45 42 41 44 36 34 34 37 42 40 35 26 23 20 19 15 19 22 19 20 23 22 19 18 15
51 51 52 53 54 54 55 54 54 53 53 51 52 61 76 74 70 72 71 68 61 48 47 47 48 44 42 40 37 35 42 37 31 27 24 21 19 18 23 24 24 22 27 25 22 22 20
59 64 65 64 64 63 61 60 59 59 58 57 57 56 59 73 74 74 77 74 58 50 47 53 51 46 42 39 39 38 41 40 37 29 28 23 23 23 25 24 24 24 26 27 25 23 20
67 67 70 72 74 74 72 64 62 62 59 62 64 63 51 62 78 80 84 71 56 57 56 56 54 48 47 43 41 41 43 37 34 32 30 26 25 24 25 27 21 25 30 30 26 26 24
72 72 72 73 74 78 75 72 67 66 64 64 64 63 58 59 80 85 83 66 64 64 62 60 56 51 47 44 42 43 45 32 32 32 31 25 27 27 28 30 27 30 29 34 33 27 30
81 79 79 79 78 72 72 72 72 71 69 64 65 64 68 61 77 85 79 69 72 70 67 63 56 44 48 43 46 47 42 36 34 34 32 30 29 27 30 29 33 33 32 31 31 33 32
79 72 61 59 62 59 53 59 68 72 71 69 67 68 74 71 63 76 77 77 75 73 68 66 50 45 47 47 46 51 44 40 40 38 35 33 30 26 26 20 25 32 33 31 32 35 29
53 49 49 46 48 48 58 53 57 58 66 72 71 70 68 68 60 65 79 76 74 77 69 68 52 49 47 44 45 57 48 42 40 36 35 36 32 27 20 22 27 29 32 33 33 31 32
54 56 56 55 52 53 47 52 54 59 64 67 71 66 66 62 56 65 76 81 81 76 68 64 54 46 43 45 48 55 51 48 42 36 36 38 31 26 21 21 23 26 29 32 31 32 32
56 56 55 57 60 53 48 58 55 57 65 65 61 60 61 62 64 61 77 77 79 75 68 61 50 43 41 39 38 46 42 43 40 38 37 38 32 26 22 21 23 31 25 27 28 27 24
47 44 46 57 53 56 50 66 56 60 62 54 55 54 54 61 62 48 69 76 79 75 66 60 54 48 45 43 39 43 44 47 42 39 40 38 31 29 26 24 29 19 20 25 27 24 24
37 38 39 51 49 53 52 70 58 57 55 49 55 54 51 52 51 50 72 77 78 77 68 63 56 47 44 43 37 47 39 48 45 43 42 38 35 32 31 28 23 22 19 23 22 22 24
25 31 33 43 47 48 58 65 65 57 49 49 54 51 44 46 41 46 73 76 77 75 66 60 59 50 44 48 40 51 44 48 48 47 41 40 36 35 32 29 26 17 15 18 22 17 16
19 30 38 43 42 51 64 66 51 45 44 50 50 47 44 45 31 44 70 79 75 71 64 59 59 50 47 54 48 49 55 47 50 46 42 39 38 38 30 31 22 18 21 19 23 10 24
23 32 35 39 47 49 68 60 61 51 45 47 44 46 42 46 34 44 53 52 69 69 62 60 58 49 50 50 54 48 58 51 49 47 43 38 35 34 32 32 22 16 19 22 18 22 25
27 32 37 38 42 47 60 62 56 46 40 41 41 43 40 42 37 47 63 47 58 64 62 59 52 48 50 53 51 51 49 54 55 47 47 40 37 37 32 27 21 22 25 26 23 24 25
Wind_Direction
265 264 261 259 258 258 260 260 257 259 258 258 261 263 264 267 268 267 268 269 270 276 276 276 285 287 297 299 299 299 302 303 315 327 334 341 339 331 319 195 162 144 130 175 170 221 256
262 263 262 261 258 260 260 260 259 257 258 259 262 265 266 265 266 268 269 268 268 273 273 274 277 282 290 294 294 296 299 301 312 324 335 346 346 327 318 212 173 145 143 172 88 286 245
261 260 261 261 261 261 259 259 258 258 259 260 260 262 265 266 268 266 268 270 272 271 274 270 271 276 282 290 291 289 287 294 310 323 333 351 354 327 315 218 188 166 174 201 235 20 349
259 260 260 261 261 260 258 258 256 257 258 261 263 265 264 264 264 269 267 267 268 269 272 273 271 275 275 282 288 285 279 289 307 322 327 352 0 334 312 225 190 181 194 158 164 54 15
263 262 261 261 261 262 262 260 259 258 257 257 258 262 263 263 263 265 267 266 266 265 267 270 274 275 280 270 280 280 273 285 302 314 322 342 359 354 330 244 187 175 204 199 184 129 100
268 267 265 263 263 262 261 262 261 259 259 259 259 259 260 262 262 261 263 266 267 264 259 264 268 272 280 269 274 272 270 280 293 304 313 332 336 341 329 246 193 208 192 214 310 156 102
268 268 268 268 267 265 263 261 259 258 258 259 258 259 260 260 263 261 259 259 262 261 257 256 259 264 272 274 264 271 266 272 284 295 306 315 315 327 313 250 214 196 205 201 211 186 257
265 265 265 265 265 266 266 263 261 256 253 254 255 255 256 258 259 261 260 258 255 258 255 253 257 259 263 271 264 265 264 268 275 282 289 292 317 319 310 258 213 199 207 219 221 222 269
266 265 264 262 262 262 263 265 264 262 256 253 251 253 253 253 256 258 260 258 255 253 256 250 250 256 260 262 263 258 258 259 266 270 273 277 294 285 275 230 204 206 210 225 232 250 281
269 268 266 265 265 263 261 260 260 263 263 256 251 250 251 251 252 251 253 257 255 251 253 250 248 246 248 256 258 252 249 253 258 260 262 273 269 251 214 209 202 214 209 222 236 238 245
272 272 271 271 269 268 267 265 264 262 261 259 256 249 249 249 252 250 250 251 251 249 247 250 245 247 243 248 247 251 245 252 247 260 253 258 256 247 228 227 220 214 216 224 228 232 226
264 264 263 264 266 264 263 261 261 261 260 259 258 250 246 246 246 245 245 244 243 243 240 242 245 243 239 242 238 238 237 240 241 248 250 253 261 242 237 238 242 227 227 227 230 238 235
266 265 264 264 264 265 266 262 260 258 253 245 241 238 237 240 240 240 241 239 235 231 236 231 238 240 234 235 233 235 241 248 245 245 249 250 256 246 239 237 235 232 230 231 240 250 243
263 263 261 259 260 263 264 260 259 257 254 253 238 233 229 228 234 234 236 235 231 237 225 233 234 238 236 232 234 226 235 238 230 231 231 235 248 249 236 235 239 236 237 235 229 243 248
265 265 265 265 264 261 263 262 258 255 254 250 247 242 231 227 225 229 228 229 232 227 224 226 231 233 233 236 238 234 236 238 233 233 231 239 240 250 235 233 240 240 234 232 234 237 243
272 267 265 264 263 262 260 260 260 256 250 247 245 241 239 230 223 224 223 225 226 219 222 223 226 228 235 234 235 237 232 232 222 219 221 225 235 238 235 235 239 232 232 230 233 239 244
275 274 271 267 260 256 256 254 257 252 246 242 241 239 235 232 227 222 224 220 216 214 216 220 223 227 230 236 236 233 230 221 215 213 220 225 231 233 233 231 233 237 234 227 232 237 237
275 273 271 268 265 258 252 250 253 248 241 240 238 237 231 227 221 225 223 215 213 210 213 217 220 218 222 227 230 231 217 205 211 213 220 226 237 236 234 231 226 225 232 236 241 239 240
278 275 272 266 261 257 252 247 245 242 233 237 237 233 229 230 221 223 224 214 216 210 213 215 218 215 218 218 220 223 213 198 203 213 215 222 227 230 231 232 227 228 233 235 236 243 252
281 276 271 262 249 239 229 232 234 227 225 228 229 228 228 226 226 222 222 217 216 215 210 218 213 212 215 218 220 215 205 201 202 210 214 218 224 231 236 242 239 236 236 238 240 247 258
270 265 263 253 236 228 223 231 222 220 222 224 222 226 229 225 227 225 219 219 217 220 213 215 205 206 214 217 219 215 203 203 205 213 214 218 221 226 225 222 232 234 236 240 244 251 253
269 261 260 248 225 224 225 227 219 209 217 220 219 222 226 223 225 222 215 214 217 220 219 215 204 204 211 213 210 205 199 200 200 211 212 218 219 218 215 221 230 240 238 237 237 245 259
273 266 248 237 222 222 220 211 205 212 212 216 213 218 223 223 223 220 214 214 219 219 217 217 210 208 209 211 199 203 206 202 203 207 210 219 216 216 216 223 233 239 235 240 246 253 258
268 254 238 221 220 216 214 200 198 207 212 213 212 216 221 222 225 227 212 212 216 221 218 216 208 204 200 215 202 199 208 203 206 206 209 216 217 218 221 225 230 241 232 235 245 250 250
257 239 222 210 206 204 203 200 194 201 206 211 208 214 217 220 223 223 206 208 214 218 218 218 214 204 199 213 206 201 200 202 207 207 211 218 219 223 230 235 240 236 222 240 245 245 253
230 218 198 193 198 198 193 190 185 198 204 206 207 213 210 214 227 216 204 208 212 217 216 216 220 206 202 205 206 206 203 205 209 214 213 216 219 224 231 239 238 238 240 243 238 246 266
190 180 181 187 193 185 182 184 185 186 199 204 207 208 201 207 219 209 204 208 210 215 214 213 218 207 208 205 201 206 210 208 211 215 215 216 220 228 236 244 251 246 241 243 240 247 261
164 165 173 176 174 176 173 176 183 187 195 203 204 203 203 209 216 201 199 208 210 212 210 209 213 209 209 209 209 203 210 215 210 213 218 219 225 231 237 246 250 262 244 242 257 256 264
128 140 152 163 169 174 175 178 178 178 192 198 195 199 205 212 205 198 205 203 213 210 213 209 209 207 213 214 212 212 211 214 215 214 213 214 228 232 233 248 252 250 241 245 258 262 267
Height
5761 5762 5763 5766 5768 5770 5772 5773 5776 5778 5779 5781 5784 5786 5788 5790 5791 5794 5796 5798 5800 5802 5803 5803 5802 5802 5801 5800 5798 5797 5795 5791 5788 5785 5782 5778 5773 5769 5767 5768 5768 5769 5770 5770 5770 5769 5769
5747 5749 5751 5753 5755 5758 5761 5763 5765 5767 5769 5771 5774 5777 5779 5781 5783 5785 5787 5789 5792 5795 5796 5796 5796 5796 5796 5795 5793 5792 5792 5788 5785 5783 5779 5775 5772 5769 5767 5767 5768 5769 5770 5769 5769 5769 5769
5734 5736 5738 5740 5743 5746 5748 5750 5753 5756 5759 5762 5764 5767 5770 5772 5774 5776 5779 5781 5784 5786 5789 5790 5790 5790 5791 5790 5788 5787 5786 5784 5783 5780 5777 5773 5770 5769 5766 5766 5767 5768 5770 5770 5770 5769 5768
5721 5723 5724 5727 5729 5732 5735 5738 5740 5742 5746 5749 5752 5756 5760 5762 5764 5767 5770 5773 5776 5779 5780 5782 5783 5783 5784 5784 5784 5783 5782 5780 5779 5777 5775 5771 5769 5768 5765 5765 5766 5768 5769 5772 5770 5770 5769
5706 5708 5710 5713 5716 5719 5721 5723 5727 5729 5732 5736 5740 5743 5748 5751 5755 5758 5761 5764 5768 5771 5772 5774 5777 5776 5778 5779 5778 5779 5778 5777 5776 5774 5772 5770 5767 5768 5765 5765 5767 5767 5771 5771 5770 5769 5770
5691 5693 5695 5697 5701 5705 5708 5711 5714 5717 5720 5723 5726 5730 5735 5739 5743 5746 5750 5755 5758 5763 5765 5767 5770 5771 5773 5773 5773 5773 5774 5774 5772 5771 5769 5768 5766 5766 5764 5764 5769 5769 5770 5770 5770 5771 5771
5675 5677 5678 5681 5684 5688 5692 5696 5700 5703 5707 5711 5713 5717 5721 5726 5730 5733 5738 5743 5750 5754 5757 5759 5763 5763 5766 5766 5767 5768 5769 5769 5769 5768 5767 5766 5765 5765 5762 5762 5762 5764 5765 5768 5769 5770 5771
5655 5658 5660 5663 5667 5670 5673 5678 5682 5687 5691 5696 5700 5704 5708 5713 5717 5720 5725 5730 5736 5741 5748 5750 5753 5758 5759 5759 5761 5762 5765 5766 5765 5765 5764 5764 5763 5763 5761 5760 5760 5761 5763 5766 5767 5769 5770
5633 5636 5639 5642 5645 5649 5654 5657 5662 5668 5675 5680 5685 5689 5694 5699 5704 5709 5712 5718 5723 5729 5734 5744 5744 5749 5751 5751 5754 5757 5759 5760 5761 5761 5760 5760 5760 5760 5759 5759 5759 5760 5763 5764 5767 5768 5767
5607 5609 5613 5617 5621 5625 5630 5636 5643 5647 5653 5661 5668 5674 5678 5685 5691 5695 5701 5707 5712 5719 5722 5733 5735 5738 5741 5744 5746 5749 5752 5755 5755 5757 5757 5756 5757 5758 5758 5758 5758 5759 5760 5761 5763 5767 5768
5588 5588 5589 5592 5597 5602 5606 5611 5618 5623 5632 5640 5647 5655 5661 5668 5677 5682 5689 5694 5702 5709 5711 5719 5725 5728 5733 5736 5741 5741 5745 5745 5749 5751 5754 5753 5753 5755 5755 5757 5757 5758 5758 5758 5760 5763 5766
5569 5571 5572 5574 5577 5581 5586 5591 5596 5601 5608 5615 5625 5635 5643 5652 5662 5667 5673 5681 5688 5696 5700 5707 5714 5719 5723 5725 5729 5732 5735 5738 5743 5745 5748 5748 5748 5751 5752 5753 5755 5755 5755 5757 5758 5760 5762
5553 5555 5557 5560 5563 5566 5571 5576 5581 5585 5589 5595 5603 5612 5623 5634 5647 5650 5657 5665 5672 5680 5693 5701 5705 5709 5713 5716 5720 5723 5727 5732 5737 5739 5743 5744 5744 5746 5748 5749 5751 5753 5754 5757 5760 5759 5760
5538 5540 5542 5545 5548 5552 5557 5562 5565 5571 5576 5580 5583 5593 5602 5617 5626 5632 5639 5645 5651 5676 5685 5691 5696 5700 5704 5708 5710 5715 5719 5722 5727 5734 5737 5738 5739 5741 5744 5745 5747 5749 5752 5753 5754 5756 5759
5523 5524 5527 5529 5533 5536 5540 5546 5551 5556 5560 5563 5568 5574 5583 5601 5607 5611 5616 5619 5644 5667 5674 5680 5685 5690 5694 5699 5703 5706 5711 5716 5723 5728 5733 5733 5734 5735 5737 5738 5741 5743 5745 5749 5749 5750 5752
5504 5505 5507 5510 5512 5516 5521 5527 5533 5540 5545 5547 5552 5557 5572 5584 5589 5592 5593 5602 5639 5656 5662 5666 5674 5680 5687 5689 5694 5699 5700 5707 5713 5720 5724 5727 5728 5729 5731 5733 5735 5738 5741 5743 5744 5746 5748
5480 5480 5482 5484 5488 5494 5499 5506 5513 5519 5526 5529 5532 5538 5563 5565 5570 5566 5571 5598 5633 5639 5647 5654 5661 5668 5676 5681 5685 5691 5694 5700 5708 5713 5716 5719 5722 5724 5725 5726 5732 5733 5734 5737 5740 5741 5743
5453 5453 5455 5457 5460 5468 5474 5481 5491 5499 5505 5507 5516 5526 5541 5541 5540 5553 5560 5604 5615 5620 5632 5640 5647 5655 5663 5671 5676 5681 5685 5694 5701 5706 5708 5713 5714 5716 5719 5720 5724 5727 5731 5731 5734 5737 5736
5423 5422 5422 5425 5430 5436 5444 5455 5465 5475 5481 5489 5502 5512 5515 5521 5526 5537 5570 5587 5594 5601 5615 5626 5636 5647 5652 5659 5667 5672 5678 5685 5692 5698 5699 5704 5705 5709 5712 5714 5716 5718 5722 5725 5728 5729 5731
5386 5386 5387 5390 5396 5405 5417 5425 5438 5451 5462 5469 5482 5487 5494 5507 5523 5532 5560 5568 5577 5588 5598 5609 5626 5636 5643 5651 5657 5664 5671 5676 5682 5688 5693 5695 5698 5702 5706 5710 5713 5713 5717 5720 5722 5723 5727
5358 5360 5365 5369 5375 5386 5397 5407 5418 5432 5442 5449 5460 5468 5487 5498 5508 5523 5539 5562 5570 5573 5587 5594 5613 5624 5633 5641 5647 5654 5661 5667 5673 5680 5685 5687 5689 5696 5700 5702 5704 5706 5710 5713 5715 5718 5717
5334 5336 5341 5349 5357 5369 5380 5389 5401 5417 5427 5430 5445 5462 5479 5493 5505 5513 5523 5540 5551 5563 5580 5590 5605 5616 5624 5630 5640 5642 5650 5656 5662 5671 5676 5680 5685 5690 5692 5695 5697 5699 5703 5705 5707 5710 5711
5306 5306 5311 5321 5336 5350 5362 5374 5388 5403 5413 5418 5439 5457 5468 5479 5490 5496 5509 5533 5548 5556 5572 5586 5598 5607 5614 5625 5627 5634 5643 5648 5654 5661 5668 5673 5679 5682 5686 5689 5691 5690 5697 5699 5702 5704 5706
5278 5280 5286 5299 5314 5331 5346 5360 5373 5391 5403 5425 5440 5450 5458 5467 5475 5491 5505 5523 5532 5547 5565 5578 5585 5593 5607 5615 5618 5627 5636 5642 5647 5653 5658 5665 5673 5675 5679 5682 5681 5689 5692 5694 5696 5698 5699
5255 5260 5269 5283 5300 5316 5331 5349 5363 5384 5401 5416 5429 5439 5449 5461 5479 5481 5492 5506 5518 5530 5552 5568 5582 5587 5597 5605 5611 5618 5624 5634 5641 5645 5651 5659 5664 5668 5670 5674 5680 5681 5686 5689 5690 5692 5691
5239 5247 5259 5274 5291 5307 5322 5342 5360 5381 5397 5409 5422 5432 5446 5460 5466 5472 5484 5495 5508 5522 5544 5561 5572 5581 5590 5597 5603 5609 5615 5627 5633 5640 5645 5652 5658 5661 5665 5667 5670 5678 5680 5682 5683 5685 5685
5234 5244 5259 5273 5287 5302 5319 5340 5357 5377 5393 5406 5417 5428 5441 5452 5458 5464 5474 5485 5502 5516 5537 5552 5563 5574 5582 5586 5594 5603 5607 5615 5624 5633 5641 5646 5651 5653 5659 5660 5666 5670 5673 5674 5676 5685 5675
5242 5251 5262 5275 5290 5304 5322 5342 5361 5377 5390 5402 5416 5425 5436 5444 5452 5458 5469 5480 5491 5506 5527 5543 5553 5568 5575 5579 5587 5595 5601 5608 5617 5626 5633 5641 5647 5649 5653 5654 5660 5664 5665 5666 5670 5669 5669
5256 5263 5273 5284 5297 5313 5330 5347 5363 5377 5389 5401 5412 5422 5430 5438 5446 5454 5466 5478 5486 5506 5523 5537 5554 5564 5568 5572 5580 5590 5597 5601 5609 5616 5624 5631 5639 5642 5647 5650 5655 5655 5657 5658 5659 5660 5660